FDX251 EBLG-LSGG

Flight info

Callsign FDX251
Flight time 0h 57m
Altitude 33000
Route LNO N852 SUTAL DCT GTQ DCT POGOL DCT LASAT DCT MOROK Z24 AKITO
Aircraft B77L/H-SDE1E2E3FGHIJ2J3J4J5M1RWXY/LB1D1

Departure

Time 2026-05-09 11:34
Airport Liège Airport (EBLG)

Arrival

Time 2026-05-09 12:31
Airport Geneva International Airport (LSGG)
Time Latitude Longitude Altitude Speed Heading
2026-05-09 11:08 50.63704 5.44862 620 ft 0 kts 135°
2026-05-09 11:23 50.63706 5.44859 620 ft 3 kts 135°
2026-05-09 11:23 50.63725 5.44832 634 ft 4 kts 148°
2026-05-09 11:24 50.63748 5.44816 634 ft 4 kts 174°
2026-05-09 11:24 50.63768 5.44819 634 ft 4 kts 216°
2026-05-09 11:24 50.63774 5.44826 634 ft 0 kts 225°
2026-05-09 11:27 50.63765 5.44812 634 ft 4 kts 225°
2026-05-09 11:27 50.63736 5.44765 634 ft 8 kts 225°
2026-05-09 11:27 50.63686 5.44687 630 ft 12 kts 225°
2026-05-09 11:28 50.63619 5.44580 628 ft 16 kts 225°
2026-05-09 11:28 50.63535 5.44448 634 ft 18 kts 224°
2026-05-09 11:28 50.63447 5.44309 638 ft 18 kts 225°
2026-05-09 11:28 50.63360 5.44172 646 ft 18 kts 224°
2026-05-09 11:29 50.63268 5.44027 648 ft 20 kts 225°
2026-05-09 11:29 50.63202 5.43905 651 ft 12 kts 253°
2026-05-09 11:29 50.63201 5.43897 650 ft 0 kts 265°
2026-05-09 11:30 50.63201 5.43888 649 ft 2 kts 266°
2026-05-09 11:30 50.63210 5.43853 648 ft 5 kts 309°
2026-05-09 11:30 50.63256 5.43841 645 ft 9 kts
2026-05-09 11:31 50.63321 5.43835 654 ft 9 kts 320°
2026-05-09 11:31 50.63334 5.43735 650 ft 10 kts 266°
2026-05-09 11:31 50.63313 5.43599 655 ft 16 kts 257°
2026-05-09 11:31 50.63274 5.43372 646 ft 27 kts 254°
2026-05-09 11:32 50.63182 5.43095 649 ft 30 kts 224°
2026-05-09 11:32 50.63032 5.42960 656 ft 22 kts 172°
2026-05-09 11:32 50.62942 5.43115 665 ft 18 kts 85°
2026-05-09 11:32 50.62974 5.43196 663 ft 0 kts 45°
2026-05-09 11:33 50.62984 5.43212 662 ft 13 kts 45°
2026-05-09 11:33 50.63780 5.44472 636 ft 148 kts 45°
2026-05-09 11:34 50.64615 5.45738 840 ft 174 kts 42°
2026-05-09 11:34 50.65500 5.47099 1449 ft 177 kts 45°
2026-05-09 11:34 50.66379 5.48509 2102 ft 182 kts 46°
2026-05-09 11:34 50.67276 5.49949 2680 ft 194 kts 46°
2026-05-09 11:35 50.68283 5.51580 2974 ft 220 kts 46°
2026-05-09 11:35 50.69355 5.53330 3691 ft 224 kts 46°
2026-05-09 11:35 50.70473 5.55106 4261 ft 232 kts 46°
2026-05-09 11:35 50.71668 5.56860 4879 ft 238 kts 32°
2026-05-09 11:36 50.73223 5.57580 5551 ft 240 kts 356°
2026-05-09 11:36 50.74724 5.56867 6224 ft 241 kts 324°
2026-05-09 11:36 50.75774 5.54866 6884 ft 238 kts 289°
2026-05-09 11:36 50.76268 5.52351 7504 ft 241 kts 284°
2026-05-09 11:37 50.76710 5.49798 8290 ft 240 kts 283°
2026-05-09 11:37 50.77149 5.47249 9021 ft 242 kts 283°
2026-05-09 11:37 50.77595 5.44674 9742 ft 244 kts 283°
2026-05-09 11:37 50.77997 5.42076 10404 ft 243 kts 271°
2026-05-09 11:38 50.77663 5.39501 10745 ft 254 kts 239°
2026-05-09 11:38 50.76378 5.37438 10923 ft 278 kts 211°
2026-05-09 11:38 50.74468 5.36352 11127 ft 307 kts 189°
2026-05-09 11:38 50.72243 5.36484 11333 ft 337 kts 168°
2026-05-09 11:39 50.70745 5.37382 11444 ft 358 kts 153°
2026-05-09 11:39 50.68831 5.40020 11977 ft 377 kts 127°
2026-05-09 11:39 50.67549 5.43673 12784 ft 386 kts 116°
2026-05-09 11:40 50.65325 5.51511 14584 ft 395 kts 117°
2026-05-09 11:40 50.64092 5.55404 15501 ft 397 kts 119°
2026-05-09 11:40 50.62778 5.59243 16375 ft 400 kts 121°
2026-05-09 11:40 50.61411 5.63101 17224 ft 404 kts 121°
2026-05-09 11:41 50.59991 5.66929 18036 ft 405 kts 126°
2026-05-09 11:41 50.58099 5.70235 18664 ft 409 kts 141°
2026-05-09 11:41 50.55764 5.72728 19351 ft 411 kts 154°
2026-05-09 11:41 50.53122 5.74443 19965 ft 413 kts 161°
2026-05-09 11:42 50.50396 5.75987 20527 ft 420 kts 161°
2026-05-09 11:42 50.47628 5.77540 21177 ft 424 kts 161°
2026-05-09 11:42 50.44825 5.79126 21869 ft 428 kts 160°
2026-05-09 11:42 50.42049 5.80713 22517 ft 432 kts 160°
2026-05-09 11:43 50.39215 5.82350 23141 ft 437 kts 160°
2026-05-09 11:43 50.36343 5.84019 23735 ft 442 kts 160°
2026-05-09 11:43 50.33443 5.85705 24262 ft 446 kts 160°
2026-05-09 11:43 50.30521 5.87406 24818 ft 449 kts 160°
2026-05-09 11:44 50.27580 5.89116 25380 ft 452 kts 160°
2026-05-09 11:44 50.24623 5.90834 25917 ft 455 kts 160°
2026-05-09 11:44 50.21641 5.92564 26418 ft 459 kts 160°
2026-05-09 11:44 50.18632 5.94305 26919 ft 463 kts 160°
2026-05-09 11:45 50.15595 5.96061 27448 ft 466 kts 160°
2026-05-09 11:45 50.12547 5.97821 27941 ft 469 kts 160°
2026-05-09 11:45 50.09473 5.99593 28415 ft 472 kts 160°
2026-05-09 11:45 50.06411 6.01355 28884 ft 476 kts 160°
2026-05-09 11:46 50.03296 6.03147 29331 ft 479 kts 160°
2026-05-09 11:46 50.00155 6.04956 29783 ft 481 kts 160°
2026-05-09 11:46 49.97026 6.06755 30333 ft 480 kts 160°
2026-05-09 11:46 49.93903 6.08544 30914 ft 477 kts 160°
2026-05-09 11:47 49.90792 6.10324 31490 ft 475 kts 161°
2026-05-09 11:47 49.87685 6.12095 31964 ft 474 kts 160°
2026-05-09 11:47 49.84603 6.13958 32444 ft 474 kts 158°
2026-05-09 11:47 49.81584 6.16004 32879 ft 474 kts 157°
2026-05-09 11:48 49.78573 6.18077 33132 ft 474 kts 157°
2026-05-09 11:48 49.72583 6.22184 33109 ft 473 kts 157°
2026-05-09 11:49 49.66547 6.26278 33110 ft 474 kts 157°
2026-05-09 11:49 49.60479 6.30327 33106 ft 475 kts 158°
2026-05-09 11:50 49.54364 6.34258 33099 ft 477 kts 158°
2026-05-09 11:50 49.48236 6.38204 33095 ft 477 kts 158°
2026-05-09 11:51 49.42142 6.42229 33085 ft 477 kts 157°
2026-05-09 11:51 49.36113 6.46352 33083 ft 476 kts 157°
2026-05-09 11:52 49.30051 6.50484 33081 ft 476 kts 157°
2026-05-09 11:52 49.23987 6.54584 33077 ft 476 kts 157°
2026-05-09 11:53 49.17919 6.58666 33072 ft 476 kts 157°
2026-05-09 11:53 49.11898 6.62707 33070 ft 476 kts 157°
2026-05-09 11:54 49.05823 6.66776 33073 ft 476 kts 157°
2026-05-09 11:54 48.99638 6.70307 33072 ft 474 kts 168°
2026-05-09 11:55 48.93111 6.71540 33065 ft 473 kts 181°
2026-05-09 11:56 48.73410 6.70595 33060 ft 472 kts 182°
2026-05-09 11:57 48.66852 6.70340 33056 ft 470 kts 182°
2026-05-09 11:57 48.60357 6.70093 33054 ft 469 kts 182°
2026-05-09 11:58 48.53832 6.69839 33053 ft 468 kts 182°
2026-05-09 11:58 48.47323 6.69587 33056 ft 467 kts 182°
2026-05-09 11:59 48.40819 6.69336 33046 ft 466 kts 182°
2026-05-09 11:59 48.34377 6.69091 33050 ft 465 kts 182°
2026-05-09 12:00 48.27893 6.68849 33052 ft 465 kts 182°
2026-05-09 12:00 48.21425 6.68607 33054 ft 464 kts 182°
2026-05-09 12:01 48.15013 6.68366 33048 ft 464 kts 182°
2026-05-09 12:01 48.08547 6.68126 33048 ft 464 kts 182°
2026-05-09 12:02 48.02079 6.67887 33045 ft 464 kts 182°
2026-05-09 12:02 47.95630 6.67648 33049 ft 464 kts 182°
2026-05-09 12:03 47.89169 6.67409 33052 ft 464 kts 183°
2026-05-09 12:03 47.82743 6.67172 33046 ft 465 kts 183°
2026-05-09 12:04 47.76261 6.66933 33048 ft 466 kts 184°
2026-05-09 12:04 47.69760 6.66695 33055 ft 468 kts 184°
2026-05-09 12:05 47.63223 6.66455 33048 ft 470 kts 184°
2026-05-09 12:05 47.56656 6.66216 33062 ft 472 kts 185°
2026-05-09 12:06 47.50110 6.65978 33053 ft 474 kts 185°
2026-05-09 12:06 47.43505 6.65737 33046 ft 476 kts 186°
2026-05-09 12:07 47.36868 6.65494 33053 ft 477 kts 186°
2026-05-09 12:07 47.30236 6.65240 33044 ft 474 kts 186°
2026-05-09 12:07 47.26958 6.65117 32659 ft 471 kts 186°
2026-05-09 12:08 47.23711 6.64815 32037 ft 459 kts 196°
2026-05-09 12:08 47.20732 6.63440 31567 ft 442 kts 210°
2026-05-09 12:08 47.18175 6.61081 30997 ft 428 kts 225°
2026-05-09 12:08 47.16023 6.58139 30495 ft 419 kts 227°
2026-05-09 12:09 47.13889 6.55235 29933 ft 416 kts 226°
2026-05-09 12:09 47.11782 6.52420 29348 ft 413 kts 226°
2026-05-09 12:09 47.09655 6.49610 28811 ft 409 kts 226°
2026-05-09 12:10 47.03375 6.41389 27230 ft 399 kts 225°
2026-05-09 12:10 47.01309 6.38693 26707 ft 396 kts 225°
2026-05-09 12:10 46.99260 6.36020 26225 ft 393 kts 225°
2026-05-09 12:11 46.97221 6.33362 25720 ft 391 kts 225°
2026-05-09 12:11 46.95193 6.30721 25222 ft 389 kts 225°
2026-05-09 12:11 46.93174 6.28094 24743 ft 388 kts 225°
2026-05-09 12:11 46.91149 6.25465 24271 ft 392 kts 225°
2026-05-09 12:12 46.89092 6.22788 23764 ft 400 kts 225°
2026-05-09 12:12 46.87028 6.20098 23194 ft 404 kts 224°
2026-05-09 12:12 46.84935 6.17371 22646 ft 401 kts 224°
2026-05-09 12:12 46.82860 6.14673 22134 ft 397 kts 224°
2026-05-09 12:13 46.80804 6.12001 21655 ft 394 kts 224°
2026-05-09 12:13 46.78756 6.09341 21152 ft 391 kts 224°
2026-05-09 12:13 46.76735 6.06719 20679 ft 388 kts 224°
2026-05-09 12:13 46.74726 6.04115 20200 ft 385 kts 224°
2026-05-09 12:14 46.72727 6.01525 19732 ft 383 kts 224°
2026-05-09 12:14 46.70740 5.98953 19257 ft 381 kts 224°
2026-05-09 12:14 46.68788 5.96430 18803 ft 379 kts 223°
2026-05-09 12:14 46.66833 5.93910 18612 ft 369 kts 223°
2026-05-09 12:15 46.64933 5.91468 18397 ft 360 kts 223°
2026-05-09 12:15 46.63076 5.89090 18240 ft 350 kts 223°
2026-05-09 12:15 46.61273 5.86782 18064 ft 340 kts 223°
2026-05-09 12:15 46.59373 5.84881 17904 ft 329 kts 205°
2026-05-09 12:16 46.57168 5.84135 17788 ft 324 kts 185°
2026-05-09 12:16 46.54921 5.84427 17426 ft 325 kts 170°
2026-05-09 12:16 46.52815 5.85598 17070 ft 326 kts 151°
2026-05-09 12:16 46.50950 5.87461 16762 ft 322 kts 147°
2026-05-09 12:17 46.49138 5.89351 16417 ft 320 kts 147°
2026-05-09 12:17 46.47333 5.91211 16064 ft 317 kts 147°
2026-05-09 12:17 46.45557 5.93017 15734 ft 314 kts 147°
2026-05-09 12:17 46.43749 5.94841 15393 ft 311 kts 147°
2026-05-09 12:18 46.42059 5.96538 15086 ft 309 kts 147°
2026-05-09 12:18 46.40300 5.98299 14765 ft 306 kts 147°
2026-05-09 12:18 46.38564 6.00035 14441 ft 302 kts 147°
2026-05-09 12:18 46.36835 6.01743 14115 ft 296 kts 151°
2026-05-09 12:19 46.34933 6.02721 13797 ft 288 kts 176°
2026-05-09 12:19 46.32976 6.02417 13450 ft 283 kts 199°
2026-05-09 12:19 46.31221 6.01163 13113 ft 283 kts 218°
2026-05-09 12:19 46.29778 5.99191 12789 ft 290 kts 225°
2026-05-09 12:20 46.28363 5.97060 12467 ft 295 kts 225°
2026-05-09 12:20 46.26930 5.94918 12116 ft 296 kts 225°
2026-05-09 12:20 46.25491 5.92801 11760 ft 294 kts 225°
2026-05-09 12:20 46.24056 5.90707 11408 ft 292 kts 224°
2026-05-09 12:21 46.22632 5.88630 11091 ft 289 kts 224°
2026-05-09 12:21 46.21221 5.86574 10758 ft 287 kts 224°
2026-05-09 12:21 46.19823 5.84543 10499 ft 282 kts 224°
2026-05-09 12:21 46.18466 5.82577 10386 ft 270 kts 224°
2026-05-09 12:22 46.17182 5.80707 10217 ft 256 kts 224°
2026-05-09 12:22 46.15961 5.78938 10029 ft 250 kts 224°
2026-05-09 12:22 46.14744 5.77174 9686 ft 246 kts 224°
2026-05-09 12:22 46.13539 5.75427 9297 ft 244 kts 224°
2026-05-09 12:23 46.12341 5.73698 8993 ft 242 kts 224°
2026-05-09 12:23 46.11153 5.71978 8707 ft 241 kts 222°
2026-05-09 12:23 46.09758 5.70717 8395 ft 237 kts 193°
2026-05-09 12:23 46.08130 5.70718 8238 ft 238 kts 165°
2026-05-09 12:24 46.06558 5.71571 8005 ft 244 kts 152°
2026-05-09 12:24 46.05144 5.72926 7868 ft 244 kts 143°
2026-05-09 12:24 46.03803 5.74466 7575 ft 246 kts 136°
2026-05-09 12:24 46.02809 5.76450 7292 ft 244 kts 121°
2026-05-09 12:25 46.02222 5.78651 7054 ft 237 kts 91°
2026-05-09 12:25 46.02678 5.80842 7023 ft 226 kts 50°
2026-05-09 12:25 46.03945 5.82125 6807 ft 235 kts 31°
2026-05-09 12:25 46.05228 5.83672 6333 ft 244 kts 48°
2026-05-09 12:26 46.06392 5.85447 5938 ft 241 kts 46°
2026-05-09 12:26 46.07563 5.87148 5624 ft 236 kts 46°
2026-05-09 12:26 46.08312 5.88233 5399 ft 226 kts 46°
2026-05-09 12:26 46.09388 5.89792 5079 ft 211 kts 45°
2026-05-09 12:27 46.10386 5.91247 4882 ft 200 kts 45°
2026-05-09 12:27 46.11366 5.92680 4614 ft 198 kts 45°
2026-05-09 12:27 46.12311 5.94061 4319 ft 187 kts 45°
2026-05-09 12:27 46.13188 5.95343 4127 ft 178 kts 45°
2026-05-09 12:28 46.14071 5.96633 3872 ft 180 kts 45°
2026-05-09 12:28 46.14913 5.97868 3608 ft 169 kts 45°
2026-05-09 12:28 46.15690 5.99006 3409 ft 154 kts 44°
2026-05-09 12:28 46.16434 6.00096 3200 ft 151 kts 45°
2026-05-09 12:29 46.17176 6.01185 3023 ft 155 kts 45°
2026-05-09 12:29 46.17935 6.02290 2790 ft 154 kts 45°
2026-05-09 12:29 46.18681 6.03383 2580 ft 152 kts 46°
2026-05-09 12:29 46.19428 6.04479 2373 ft 151 kts 46°
2026-05-09 12:30 46.20159 6.05552 2179 ft 147 kts 46°
2026-05-09 12:30 46.20877 6.06591 1970 ft 148 kts 45°
2026-05-09 12:30 46.22299 6.08708 1586 ft 147 kts 45°
2026-05-09 12:31 46.23019 6.09744 1434 ft 146 kts 46°
2026-05-09 12:31 46.24096 6.11315 1377 ft 60 kts 47°
2026-05-09 12:31 46.24296 6.11662 1373 ft 37 kts 68°
2026-05-09 12:32 46.24337 6.11859 1369 ft 11 kts 78°
2026-05-09 12:32 46.24295 6.11925 1367 ft 11 kts 189°
2026-05-09 12:32 46.24233 6.11851 1366 ft 12 kts 225°
2026-05-09 12:32 46.24175 6.11770 1368 ft 12 kts 224°
2026-05-09 12:33 46.24117 6.11687 1370 ft 12 kts 225°
2026-05-09 12:33 46.24060 6.11603 1370 ft 12 kts 227°
2026-05-09 12:33 46.24004 6.11518 1372 ft 12 kts 226°
2026-05-09 12:33 46.23948 6.11434 1376 ft 11 kts 224°
2026-05-09 12:34 46.23900 6.11366 1376 ft 10 kts 224°
2026-05-09 12:34 46.23853 6.11298 1377 ft 10 kts 226°
2026-05-09 12:34 46.23800 6.11219 1380 ft 13 kts 225°
2026-05-09 12:34 46.23733 6.11120 1383 ft 14 kts 225°
2026-05-09 12:35 46.23661 6.11088 1406 ft 12 kts 147°
2026-05-09 12:35 46.23594 6.11155 1405 ft 12 kts 171°
2026-05-09 12:35 46.23526 6.11094 1407 ft 12 kts 225°
2026-05-09 12:35 46.23467 6.11005 1406 ft 12 kts 226°
2026-05-09 12:36 46.23437 6.10978 1404 ft 4 kts 183°
2026-05-09 12:36 46.23415 6.10991 1403 ft 4 kts 141°
2026-05-09 12:36 46.23395 6.11018 1401 ft 4 kts 134°
2026-05-09 12:36 46.23381 6.11039 1402 ft 0 kts 135°